Home > Weather > Stillwater > Past weeks

Flag for USA Weather for the Past 2 Weeks in Stillwater, Minnesota, USA

Now
60 °F

Clear.


Feels Like: 60 °F
Forecast: 58 / 88 °F
Wind: 7 mph from West

Location: St. Paul Downtown Holman Field

Current Time: May 6, 2016 at 4:24:26 AM

Latest Report: May 6, 2016 at 3:53 AM


Visibility: 10 mi

Pressure: 29.85 "Hg

Humidity: 53%

Dew Point: 43 °F

Location of StillwaterLocation

Historic Weather in Stillwater — Graph

°F

Stillwater Temperature Yesterday

Maximum temperature yesterday: 76 °F (at 5:53 PM)
Minimum temperature yesterday: 42 °F (at 4:53 AM)
Average temperature yesterday: 59 °F

High & Low Weather Summary for the Past Weeks

 TemperatureHumidityPressure
High76 °F (May 5, 5:53 PM)100% (Apr 29, 4:53 AM)30.22 "Hg (Apr 29, 4:53 AM)
Low34 °F (Apr 29, 4:53 AM)22% (May 4, 7:53 PM)29.54 "Hg (Apr 25, 7:53 AM)
Average52 °F65%29.97 "Hg
* Reported Apr 21 2:53 AM — May 6 2:53 AM, Stillwater, Weather by CustomWeather, © 2016

Note: Actual official high and low records may vary slightly from our data, if they occured in-between our weather recording intervals... More about our weather records

Advertising

Stillwater Weather History for the Previous 24 Hours

Scroll right to see more
 ConditionsComfort  
Time TempWeatherWind HumidityBarometerVisibility
2:53 AM
Fri, May 6
60 °FClear.No wind56%29.85 "Hg10 mi
1:53 AM60 °FClear.3 mph60%29.85 "Hg10 mi
12:53 AM56 °FClear.No wind67%29.86 "Hg10 mi
11:53 PM
Thu, May 5
57 °FClear.3 mph64%29.87 "Hg10 mi
10:53 PM58 °FClear.3 mph65%29.88 "Hg10 mi
9:53 PM62 °FClear.3 mph56%29.87 "Hg10 mi
8:53 PM61 °FSunny.6 mph52%29.87 "Hg10 mi
7:53 PM71 °FSunny.5 mph34%29.87 "Hg10 mi
6:53 PM75 °FSunny.9 mph27%29.88 "Hg10 mi
5:53 PM76 °FSunny.10 mph25%29.90 "Hg10 mi
4:53 PM75 °FSunny.13 mph26%29.93 "Hg10 mi
3:53 PM73 °FSunny.10 mph27%29.95 "Hg10 mi
2:53 PM70 °FSunny.9 mph30%29.97 "Hg10 mi
1:53 PM66 °FPassing clouds.7 mph34%30.00 "Hg10 mi
12:53 PM64 °FBroken clouds.10 mph34%30.03 "Hg10 mi
11:53 AM64 °FPassing clouds.8 mph30%30.03 "Hg10 mi
10:53 AM60 °FSunny.8 mph36%30.05 "Hg10 mi
9:53 AM57 °FScattered clouds.7 mph41%30.07 "Hg10 mi
8:53 AM54 °FSunny.5 mph53%30.08 "Hg10 mi
7:53 AM50 °FScattered clouds.3 mph57%30.08 "Hg10 mi
6:53 AM46 °FPassing clouds.5 mph68%30.08 "Hg10 mi
5:53 AM43 °FPassing clouds.No wind71%30.03 "Hg10 mi
4:53 AM42 °FClear.No wind68%30.03 "Hg10 mi
Weather by CustomWeather, © 2016

See weather overviewHow to use our weather pages